Location: Riverside
(39.1734°N, 77.8561°W)
Time: 07:07:21
(UTC+00:00)

OTV 5 (USA 277) - Pass Details

Date: 17 October 2019
Orbit: 310 x 324 km, 54.5° (Epoch: 17 October)

Event Time Altitude Azimuth Distance (km) Brightness Sun altitude
Exits shadow 10:25:08 - 334° (NNW) 1,487 ? -11.9°
Reaches altitude 10° 10:25:52 10° 342° (NNW) 1,239 ? -11.8°
Maximum altitude 10:28:01 20° 34° (NNE) 820 ? -11.4°
Drops below altitude 10° 10:30:09 10° 85° (E) 1,230 ? -11.0°
Sets 10:32:24 0° 104° (ESE) 2,055 ? -10.5°
